EUTELSAT 12 WEST A

Last updated on Sat Apr 08 2017 00:17:16 GMT+0000 (Coordinated Universal Time)

1 27508U 02040A 17095.56094411 -.00000275 00000-0 00000-0 0 9995 2 27508 0.0697 18.2831 0006814 357.9573 343.7653 1.00271947 53513

Satellite not in orbit

EUTELSAT 12 WEST A